DW3765 Weather Reports


Display with metric or nautical units.
time (UTC)temp
F
wind
direction
speed
MPH
gust
MPH
rain 1hr
in
rain 24hr
in
rain mn
in
humidity
%
barometer
mb
20260831080149 77 140 2.0 4.0 0.00 0.00 0.00 86 1016.8
20260831075649 77 140 1.0 4.0 0.00 0.00 0.00 86 1016.9
20260831075201 78 140 1.0 5.0 0.00 0.00 0.00 85 1016.9
20260831074722 78 138 2.0 6.0 0.00 0.00 0.00 85 1016.9
20260831074136 78 128 3.0 6.0 0.00 0.00 0.00 85 1016.9
20260831073659 78 140 2.0 7.0 0.00 0.00 0.00 84 1016.8
20260831073208 78 138 4.0 7.0 0.00 0.00 0.00 84 1016.8
20260831072702 78 130 3.0 7.0 0.00 0.00 0.00 83 1016.8
20260831072217 78 123 2.0 7.0 0.00 0.00 0.00 83 1016.7
20260831071720 78 125 3.0 7.0 0.00 0.00 0.00 83 1016.8
20260831071129 79 170 4.0 7.0 0.00 0.00 0.00 82 1016.8
20260831070652 79 128 2.0 8.0 0.00 0.00 0.00 82 1016.8
20260831070151 79 142 5.0 8.0 0.00 0.00 0.00 82 1016.9
20260831065628 79 141 4.0 8.0 0.00 0.00 0.00 81 1016.9
20260831065136 79 140 5.0 8.0 0.00 0.00 0.00 81 1017.0
20260831064642 79 164 1.0 6.0 0.00 0.00 0.00 80 1017.1
20260831064150 79 129 2.0 8.0 0.00 0.00 0.00 80 1017.1
20260831063629 79 148 2.0 8.0 0.00 0.00 0.00 79 1017.2
20260831063133 80 147 5.0 10.0 0.00 0.00 0.00 79 1017.2
20260831062701 80 184 5.0 13.0 0.00 0.00 0.00 78 1017.1
20260831062204 80 134 4.0 13.0 0.00 0.00 0.00 78 1017.1
20260831061631 80 138 6.0 11.0 0.00 0.00 0.00 77 1017.2
20260831061134 80 142 5.0 11.0 0.00 0.00 0.00 76 1017.0
20260831060633 80 140 5.0 10.0 0.00 0.00 0.00 76 1017.1
20260831060208 80 140 5.0 10.0 0.00 0.00 0.00 75 1017.0
20260831055625 80 175 6.0 11.0 0.00 0.00 0.00 75 1017.0
20260831055126 81 150 5.0 11.0 0.00 0.00 0.00 74 1017.0
20260831054634 81 142 6.0 11.0 0.00 0.00 0.00 74 1016.9
20260831054136 81 123 6.0 10.0 0.00 0.00 0.00 73 1016.9
20260831053702 81 157 5.0 11.0 0.00 0.00 0.00 73 1016.8
20260831053148 81 134 5.0 11.0 0.00 0.00 0.00 73 1016.7
20260831052627 81 126 5.0 9.0 0.00 0.00 0.00 72 1016.9
20260831052131 81 131 5.0 12.0 0.00 0.00 0.00 71 1016.7
20260831051638 82 136 7.0 12.0 0.00 0.00 0.00 71 1016.7
20260831051200 82 130 6.0 9.0 0.00 0.00 0.00 71 1016.8
20260831050643 82 124 5.0 9.0 0.00 0.00 0.00 70 1016.7
20260831050150 82 143 5.0 10.0 0.00 0.00 0.00 69 1016.7
20260831045658 82 123 5.0 9.0 0.00 0.00 0.00 69 1016.7
20260831045211 83 132 5.0 12.0 0.00 0.00 0.00 68 1016.6
20260831044627 83 153 7.0 12.0 0.00 0.00 0.00 68 1016.5
20260831044146 83 123 8.0 11.0 0.00 0.00 0.00 68 1016.4
20260831043649 83 140 6.0 11.0 0.00 0.00 0.00 67 1016.4
20260831043335 83 170 7.0 11.0 0.00 0.00 0.00 67 1016.4
20260831042634 83 142 4.0 10.0 0.00 0.00 0.00 66 1016.4
20260831042158 84 142 5.0 10.0 0.00 0.00 0.00 66 1016.4
20260831041710 84 137 5.0 12.0 0.00 0.00 0.00 65 1016.3
20260831040635 84 98 5.0 10.0 0.00 0.00 0.00 64 1016.2
20260831040149 84 119 6.0 14.0 0.00 0.00 0.00 64 1016.2
20260831035144 85 108 4.0 12.0 0.00 0.00 0.00 63 1016.0
20260831034659 85 86 6.0 12.0 0.00 0.00 0.00 63 1016.1
20260831034159 85 121 7.0 12.0 0.00 0.00 0.00 63 1016.0
20260831033711 85 97 6.0 11.0 0.00 0.00 0.00 62 1015.9
20260831032641 86 113 6.0 9.0 0.00 0.00 0.00 62 1015.9
20260831032154 86 134 4.0 11.0 0.00 0.00 0.00 62 1015.9
20260831031634 86 142 5.0 14.0 0.00 0.00 0.00 61 1015.9
20260831031158 86 105 6.0 14.0 0.00 0.00 0.00 61 1015.9
20260831030218 86 152 9.0 14.0 0.00 0.00 0.00 61 1015.6
20260831025712 86 128 4.0 8.0 0.00 0.00 0.00 61 1015.5
20260831025125 86 140 5.0 9.0 0.00 0.00 0.00 61 1015.4
20260831024643 87 122 6.0 12.0 0.00 0.00 0.00 61 1015.2
20260831023719 87 135 5.0 10.0 0.00 0.00 0.00 61 1015.0
20260831023152 87 119 6.0 12.0 0.00 0.00 0.00 60 1014.8
20260831022653 87 122 5.0 12.0 0.00 0.00 0.00 60 1014.8
20260831022201 87 162 6.0 11.0 0.00 0.00 0.00 60 1014.6
20260831021652 87 144 6.0 11.0 0.00 0.00 0.00 60 1014.4
20260831021149 87 163 4.0 11.0 0.00 0.00 0.00 60 1014.4
20260831020220 87 132 7.0 13.0 0.00 0.00 0.00 59 1014.3
20260831015630 88 94 4.0 8.0 0.00 0.00 0.00 58 1014.3
20260831015219 88 109 5.0 9.0 0.00 0.00 0.00 58 1014.3
20260831014731 88 103 4.0 10.0 0.00 0.00 0.00 57 1014.2
20260831014206 88 96 5.0 14.0 0.00 0.00 0.00 57 1014.2
20260831013702 88 132 7.0 16.0 0.00 0.00 0.00 56 1014.1
20260831013222 89 122 8.0 16.0 0.00 0.00 0.00 56 1014.2
20260831012739 89 141 6.0 11.0 0.00 0.00 0.00 56 1014.0
20260831012141 89 126 5.0 11.0 0.00 0.00 0.00 55 1014.0
20260831011652 90 111 4.0 13.0 0.00 0.00 0.00 54 1013.9
20260831011205 90 135 6.0 13.0 0.00 0.00 0.00 53 1014.0
20260831010623 91 137 6.0 13.0 0.00 0.00 0.00 52 1013.9
20260831010240 91 142 7.0 12.0 0.00 0.00 0.00 50 1013.9
20260831005631 91 134 6.0 10.0 0.00 0.00 0.00 49 1013.7
20260831005159 92 121 4.0 9.0 0.00 0.00 0.00 48 1013.7
20260831004658 92 90 5.0 8.0 0.00 0.00 0.00 47 1013.6
20260831004211 93 89 3.0 7.0 0.00 0.00 0.00 47 1013.5
20260831003630 93 118 4.0 10.0 0.00 0.00 0.00 47 1013.4
20260831003146 93 95 4.0 10.0 0.00 0.00 0.00 46 1013.4
20260831002709 94 110 3.0 9.0 0.00 0.00 0.00 46 1013.4
20260831002124 94 115 1.0 6.0 0.00 0.00 0.00 47 1013.5
20260831001643 94 83 3.0 6.0 0.00 0.00 0.00 47 1013.6
20260831001207 94 93 4.0 9.0 0.00 0.00 0.00 46 1013.5
20260831000721 94 64 6.0 9.0 0.00 0.00 0.00 46 1013.5
20260831000137 94 90 5.0 9.0 0.00 0.00 0.00 45 1013.5
20260830235652 94 72 6.0 9.0 0.00 0.00 0.00 45 1013.5
20260830235201 94 111 4.0 11.0 0.00 0.00 0.00 45 1013.5
20260830234730 94 86 5.0 11.0 0.00 0.00 0.00 45 1013.5
20260830234123 95 107 7.0 11.0 0.00 0.00 0.00 44 1013.6
20260830233650 95 81 4.0 9.0 0.00 0.00 0.00 43 1013.6
20260830233207 95 81 6.0 9.0 0.00 0.00 0.00 43 1013.5
20260830232649 95 80 4.0 11.0 0.00 0.00 0.00 44 1013.6
20260830232142 95 132 4.0 12.0 0.00 0.00 0.00 44 1013.5
20260830231721 95 123 6.0 12.0 0.00 0.00 0.00 43 1013.5
20260830231211 95 72 2.0 8.0 0.00 0.00 0.00 44 1013.6
20260830230705 95 162 0.0 7.0 0.00 0.00 0.00 45 1013.6
20260830230158 95 142 4.0 8.0 0.00 0.00 0.00 44 1013.5
20260830225656 95 224 4.0 9.0 0.00 0.00 0.00 43 1013.7
20260830225158 94 134 5.0 14.0 0.00 0.00 0.00 44 1013.7
20260830224713 95 153 6.0 14.0 0.00 0.00 0.00 43 1013.8
20260830224134 95 144 5.0 9.0 0.00 0.00 0.00 43 1013.8
20260830223650 95 180 1.0 16.0 0.00 0.00 0.00 43 1013.9
20260830223152 95 145 8.0 16.0 0.00 0.00 0.00 43 1013.9
20260830222635 95 140 8.0 12.0 0.00 0.00 0.00 42 1013.9
20260830222154 95 171 5.0 11.0 0.00 0.00 0.00 43 1013.9
20260830221716 95 146 3.0 11.0 0.00 0.00 0.00 45 1013.9
20260830221125 95 163 5.0 13.0 0.00 0.00 0.00 44 1013.9
20260830220653 95 132 8.0 13.0 0.00 0.00 0.00 43 1013.9
20260830215738 95 167 5.0 11.0 0.00 0.00 0.00 44 1014.0
20260830215137 95 166 6.0 15.0 0.00 0.00 0.00 45 1013.9
20260830214652 94 148 9.0 15.0 0.00 0.00 0.00 45 1014.1
20260830214152 94 131 5.0 12.0 0.00 0.00 0.00 46 1014.1
20260830213706 94 157 5.0 16.0 0.00 0.00 0.00 45 1014.3
20260830212629 94 206 5.0 13.0 0.00 0.00 0.00 46 1014.3
20260830212146 94 207 8.0 14.0 0.00 0.00 0.00 45 1014.4
20260830211708 94 146 7.0 14.0 0.00 0.00 0.00 45 1014.5
20260830211201 94 157 8.0 14.0 0.00 0.00 0.00 45 1014.6
20260830210624 94 72 8.0 14.0 0.00 0.00 0.00 45 1014.7
20260830210137 94 139 5.0 13.0 0.00 0.00 0.00 44 1014.7
20260830205652 94 153 4.0 10.0 0.00 0.00 0.00 47 1014.7
20260830204637 93 148 9.0 14.0 0.00 0.00 0.00 46 1014.9
20260830204140 93 123 3.0 14.0 0.00 0.00 0.00 48 1015.0
20260830203704 93 134 7.0 14.0 0.00 0.00 0.00 46 1015.2
20260830203220 93 154 4.0 14.0 0.00 0.00 0.00 49 1015.2
20260830202631 93 97 5.0 15.0 0.00 0.00 0.00 49 1015.2
20260830202152 92 159 7.0 15.0 0.00 0.00 0.00 49 1015.3
20260830201644 92 180 3.0 9.0 0.00 0.00 0.00 51 1015.4
20260830201159 92 149 1.0 13.0 0.00 0.00 0.00 52 1015.6
20260830200722 92 138 4.0 13.0 0.00 0.00 0.00 50 1015.8
20260830200216 92 130 6.0 15.0 0.00 0.00 0.00 51 1015.7
20260830195624 92 112 8.0 15.0 0.00 0.00 0.00 51 1015.9
20260830195223 92 147 2.0 12.0 0.00 0.00 0.00 51 1015.9
20260830194634 93 69 6.0 10.0 0.00 0.00 0.00 50 1015.9
20260830194149 92 200 2.0 11.0 0.00 0.00 0.00 53 1016.1
20260830193143 91 173 5.0 13.0 0.00 0.00 0.00 52 1016.4
20260830192655 91 109 7.0 13.0 0.00 0.00 0.00 53 1016.4
20260830191719 92 164 7.0 13.0 0.00 0.00 0.00 51 1016.5
20260830191240 91 128 5.0 13.0 0.00 0.00 0.00 54 1016.6
20260830190719 91 53 5.0 10.0 0.00 0.00 0.00 53 1016.6
20260830190150 91 111 7.0 12.0 0.00 0.00 0.00 54 1016.8
20260830185658 91 67 5.0 12.0 0.00 0.00 0.00 55 1016.8
20260830185219 92 195 1.0 12.0 0.00 0.00 0.00 54 1016.9
20260830184631 92 173 2.0 11.0 0.00 0.00 0.00 55 1017.0
20260830184132 91 176 7.0 11.0 0.00 0.00 0.00 55 1017.0
20260830183632 91 115 5.0 7.0 0.00 0.00 0.00 55 1017.1
20260830183152 90 89 3.0 10.0 0.00 0.00 0.00 56 1017.2
20260830182644 90 128 4.0 13.0 0.00 0.00 0.00 56 1017.4
20260830182126 91 160 4.0 12.0 0.00 0.00 0.00 55 1017.5
20260830181650 90 155 5.0 12.0 0.00 0.00 0.00 56 1017.4
20260830181144 90 199 0.0 9.0 0.00 0.00 0.00 56 1017.5
20260830180706 90 221 3.0 15.0 0.00 0.00 0.00 56 1017.6
20260830180141 90 100 8.0 15.0 0.00 0.00 0.00 57 1017.8
20260830175634 90 104 4.0 10.0 0.00 0.00 0.00 59 1017.8
20260830175159 90 135 0.0 12.0 0.00 0.00 0.00 58 1017.9
20260830174714 90 98 7.0 12.0 0.00 0.00 0.00 56 1017.9
20260830174233 90 173 4.0 11.0 0.00 0.00 0.00 55 1017.9
20260830173626 90 171 4.0 12.0 0.00 0.00 0.00 56 1018.0
20260830173129 90 159 4.0 12.0 0.00 0.00 0.00 56 1018.1
20260830172643 89 126 6.0 12.0 0.00 0.00 0.00 57 1018.1
20260830172144 89 143 8.0 13.0 0.00 0.00 0.00 57 1018.1
20260830171706 89 86 6.0 13.0 0.00 0.00 0.00 58 1018.1
20260830171223 89 152 6.0 14.0 0.00 0.00 0.00 58 1018.2
20260830170638 88 136 5.0 14.0 0.00 0.00 0.00 60 1018.4
20260830170158 88 119 1.0 13.0 0.00 0.00 0.00 62 1018.4
20260830165712 88 136 4.0 13.0 0.00 0.00 0.00 62 1018.4
20260830165128 88 174 6.0 13.0 0.00 0.00 0.00 60 1018.4
20260830164646 88 138 8.0 14.0 0.00 0.00 0.00 60 1018.4
20260830164148 88 119 7.0 14.0 0.00 0.00 0.00 62 1018.4
20260830163705 88 132 6.0 13.0 0.00 0.00 0.00 63 1018.5
20260830163200 88 132 6.0 10.0 0.00 0.00 0.00 63 1018.5
20260830162656 87 183 5.0 10.0 0.00 0.00 0.00 66 1018.5
20260830162217 86 150 4.0 9.0 0.00 0.00 0.00 68 1018.5
20260830161626 86 227 5.0 11.0 0.00 0.00 0.00 69 1018.5
20260830161222 86 253 6.0 11.0 0.00 0.00 0.00 69 1018.4
20260830160706 86 175 5.0 9.0 0.00 0.00 0.00 68 1018.4
20260830160204 86 246 4.0 12.0 0.00 0.00 0.00 71 1018.4
20260830155707 86 196 5.0 12.0 0.00 0.00 0.00 70 1018.4
20260830155219 85 196 6.0 11.0 0.00 0.00 0.00 71 1018.5
20260830154147 84 221 6.0 9.0 0.00 0.00 0.00 73 1018.5
20260830153643 84 246 3.0 9.0 0.00 0.00 0.00 75 1018.5
20260830153205 83 257 5.0 11.0 0.00 0.00 0.00 75 1018.5
20260830152659 83 232 5.0 11.0 0.00 0.00 0.00 76 1018.4
20260830151642 83 277 2.0 8.0 0.00 0.00 0.00 78 1018.4
20260830151157 83 261 5.0 8.0 0.00 0.00 0.00 77 1018.4
20260830150646 83 259 3.0 7.0 0.00 0.00 0.00 78 1018.4
20260830145741 83 234 5.0 10.0 0.00 0.00 0.00 78 1018.4
20260830145241 83 238 6.0 9.0 0.00 0.00 0.00 78 1018.4
20260830144629 83 192 3.0 10.0 0.00 0.00 0.00 78 1018.4
20260830144143 83 215 1.0 10.0 0.00 0.00 0.00 79 1018.4
20260830143709 82 201 3.0 10.0 0.00 0.00 0.00 80 1018.4
20260830143205 82 205 3.0 10.0 0.00 0.00 0.00 81 1018.5
20260830142629 81 146 4.0 11.0 0.00 0.00 0.00 81 1018.5
20260830142149 81 171 2.0 8.0 0.00 0.00 0.00 83 1018.4
20260830141143 80 189 2.0 9.0 0.00 0.00 0.00 84 1018.2
20260830140720 80 198 4.0 9.0 0.00 0.00 0.00 85 1018.3
20260830140216 80 146 5.0 11.0 0.00 0.00 0.00 85 1018.2
20260830135738 79 194 4.0 11.0 0.00 0.00 0.00 87 1018.3
20260830135207 79 139 3.0 9.0 0.00 0.00 0.00 88 1018.3
20260830134641 78 138 4.0 8.0 0.00 0.00 0.00 89 1018.2
20260830134144 78 171 5.0 8.0 0.00 0.00 0.00 90 1018.2
20260830133658 78 121 2.0 6.0 0.00 0.00 0.00 91 1018.2
20260830133153 77 163 2.0 6.0 0.00 0.00 0.00 92 1018.2
20260830132143 76 162 2.0 5.0 0.00 0.00 0.00 93 1018.1
20260830131657 76 165 2.0 5.0 0.00 0.00 0.00 93 1018.1
20260830131217 76 167 2.0 6.0 0.00 0.00 0.00 93 1018.0
20260830130710 76 157 2.0 6.0 0.00 0.00 0.00 94 1018.0
20260830130206 76 176 1.0 5.0 0.00 0.00 0.00 93 1018.0
20260830125627 75 171 1.0 5.0 0.00 0.00 0.00 94 1017.9
20260830125135 75 156 2.0 5.0 0.00 0.00 0.00 94 1017.9
20260830124653 75 182 1.0 2.0 0.00 0.00 0.00 93 1017.8
20260830124211 75 182 0.0 2.0 0.00 0.00 0.00 94 1017.7
20260830123724 75 181 0.0 4.0 0.00 0.00 0.00 93 1017.7
20260830123130 75 182 1.0 4.0 0.00 0.00 0.00 93 1017.5
20260830122631 75 182 2.0 4.0 0.00 0.00 0.00 93 1017.5
20260830122152 75 182 1.0 4.0 0.00 0.00 0.00 93 1017.5
20260830121719 75 182 2.0 5.0 0.00 0.00 0.00 93 1017.4
20260830121128 75 182 2.0 4.0 0.00 0.00 0.00 93 1017.4
20260830120653 75 182 1.0 3.0 0.00 0.00 0.00 93 1017.5
20260830115629 75 182 1.0 4.0 0.00 0.01 0.00 93 1017.4
20260830115146 75 182 2.0 4.0 0.00 0.01 0.00 93 1017.4
20260830114135 75 182 1.0 5.0 0.00 0.01 0.00 92 1017.4
20260830113649 75 182 0.0 5.0 0.00 0.01 0.00 92 1017.3
20260830113148 75 182 3.0 5.0 0.00 0.01 0.00 92 1017.5
20260830112643 75 182 2.0 4.0 0.00 0.01 0.00 92 1017.5
20260830112202 75 182 1.0 4.0 0.00 0.01 0.00 92 1017.5
20260830111659 75 182 1.0 6.0 0.00 0.01 0.00 92 1017.5
20260830111211 75 172 2.0 6.0 0.00 0.01 0.00 92 1017.5
20260830110647 75 163 2.0 5.0 0.00 0.01 0.00 92 1017.3
20260830110148 75 183 2.0 6.0 0.00 0.01 0.00 92 1017.3
20260830105657 75 184 2.0 6.0 0.00 0.01 0.00 92 1017.4
20260830105218 75 184 2.0 5.0 0.00 0.01 0.00 91 1017.3
20260830104630 75 182 1.0 4.0 0.00 0.01 0.00 91 1017.1
20260830104154 75 182 0.0 4.0 0.00 0.01 0.00 91 1017.3
20260830103134 75 182 0.0 2.0 0.00 0.01 0.00 90 1017.2
20260830102658 75 182 0.0 2.0 0.00 0.01 0.00 90 1017.2
20260830102211 75 182 0.0 4.0 0.00 0.01 0.00 90 1017.3
20260830101634 75 182 1.0 4.0 0.00 0.01 0.00 90 1017.2
20260830101148 75 182 1.0 5.0 0.00 0.01 0.00 90 1017.2
20260830100702 75 182 3.0 7.0 0.00 0.01 0.00 90 1017.2
20260830100203 75 175 2.0 7.0 0.00 0.01 0.00 90 1017.2
20260830095721 75 162 0.0 0.0 0.00 0.01 0.00 89 1017.2
20260830094731 75 158 0.0 0.0 0.00 0.01 0.00 89 1017.2
20260830093723 75 156 0.0 0.0 0.00 0.01 0.00 88 1017.3
20260830093218 75 156 0.0 0.0 0.00 0.01 0.00 88 1017.3
20260830092624 75 156 0.0 0.0 0.00 0.01 0.00 88 1017.3
20260830092128 75 156 0.0 0.0 0.00 0.01 0.00 88 1017.3
20260830091648 75 153 0.0 0.0 0.00 0.01 0.00 87 1017.3
20260830091143 75 149 0.0 0.0 0.00 0.01 0.00 87 1017.3
20260830090650 75 150 0.0 0.0 0.00 0.01 0.00 87 1017.3
20260830085741 75 149 0.0 0.0 0.00 0.01 0.00 87 1017.3
20260830085134 75 151 0.0 0.0 0.00 0.01 0.00 86 1017.2
20260830084627 75 151 0.0 0.0 0.00 0.01 0.00 86 1017.3
20260830084129 75 151 0.0 0.0 0.00 0.01 0.00 86 1017.3
20260830083638 75 151 0.0 0.0 0.00 0.01 0.00 85 1017.3
20260830083157 75 151 0.0 0.0 0.00 0.01 0.00 85 1017.4
20260830082718 76 151 0.0 0.0 0.00 0.01 0.00 85 1017.4
20260830082128 76 151 0.0 0.0 0.00 0.01 0.00 85 1017.4
20260830081642 76 151 0.0 0.0 0.00 0.01 0.00 84 1017.3
20260830081206 76 151 0.0 0.0 0.00 0.01 0.00 84 1017.3
20260830080702 76 151 0.0 0.0 0.00 0.01 0.00 83 1017.3